Location: Arcones
(41.1182°N, 3.7238°W)
Time: 23:05:18
(UTC+00:00)

Cosmos 2263 Rocket - Pass Details

Date: 24 March 2026
Orbit: 823 x 847 km, 71.0° (Epoch: 13 April)

Event Time Altitude Azimuth Distance (km) Brightness Sun altitude
Rises 19:30:24 0° 351° (N) 3,393 5.7 -11.8°
Reaches altitude 10° 19:34:27 10° 19° (NNE) 2,448 4.6 -12.6°
Maximum altitude 19:36:54 13° 45° (NE) 2,245 4.1 -13.0°
Enters shadow 19:38:47 11° 66° (ENE) 2,360 4.1 -13.4°
